Regional Weather Roundup
Issued by NWS Albany, NY

Home | Current Version | Previous Version | Text Only | Print | Product List | Glossary On
Versions: 1 2 3 4 5 6 7 8 9 10 11 12 13 14 15 16 17 18 19 20 21 22 23 24 25 26 27 28 29 30 31 32 33 34 35 36 37 38 39 40 41 42 43 44 45 46 47 48 49 50
000
ASUS41 KALY 270710
RWRALY

NEW YORK STATE HOURLY WEATHER ROUNDUP
NATIONAL WEATHER SERVICE ALBANY NY
300 AM EDT THU APR 27 2017

NOTE: "FAIR" INDICATES FEW OR NO CLOUDS BELOW 12,000 FEET WITH NO
SIGNIFICANT WEATHER AND/OR NO OBSTRUCTIONS TO VISIBILITY.

NYZ032-033-038>043-046>054-057>066-NYZ062>081-082-084-270800-
EAST


CITY           SKY/WX    TMP DP  RH WIND       PRES   REMARKS
ALBANY         MOCLDY    59  54  83 SE3       29.83S
GLENS FALLS    CLOUDY    59  54  83 CALM      29.83S
POUGHKEEPSIE   CLOUDY    57  56  96 CALM      29.84S FOG
NEWBURGH       FOG       57  57 100 CALM      29.86S VSB 1
MONTGOMERY     CLOUDY    58  57  97 CALM      29.83F FOG
WHITE PLAINS   CLOUDY    58  56  93 CALM      29.84S FOG
ISLIP          CLOUDY    56  56 100 W3        29.85R FOG
NEW YORK CITY  DRZL/FOG  58  56  93 CALM      29.84S VSB 1/2
CENTRAL PARK   CLOUDY    59  58  96 CALM      29.87S FOG
$$

NYZ005>009-017-018-044>046-055-056-270800-
CENTRAL


CITY           SKY/WX    TMP DP  RH WIND       PRES   REMARKS
FULTON         CLEAR     61  55  81 VRB5      29.75S
SYRACUSE       PTCLDY    57  55  93 E6        29.76S
ROME           CLEAR     57  55  93 E6        29.81R
ELMIRA         CLEAR     51  49  92 CALM      29.77S
BINGHAMTON     CLEAR     54  53  97 SE7       29.81S
MONTICELLO     CLOUDY    54  54 100 CALM      29.87S
$$

NYZ026>034-041>043-087-270800-
NORTH


CITY           SKY/WX    TMP DP  RH WIND       PRES   REMARKS
WATERTOWN      CLEAR     51  51 100 NE3       29.74S
FORT DRUM      NOT AVBL
OGDENSBURG     FOG       54  53  98 E3        29.77S VSB 1/4
MASSENA        FOG       54  54 100 NE8       29.80F VSB 1/4
SARANAC LAKE   FOG       42  42 100 CALM      29.81S VSB 1
PLATTSBURGH    CLEAR     49  47  93 CALM      29.80F
$$

NYZ001>004-010>016-019>021-085-270800-
WEST


CITY           SKY/WX    TMP DP  RH WIND       PRES   REMARKS
NIAGARA FALLS  CLEAR     54  50  86 CALM      29.66F
BUFFALO        PTCLDY    62  54  74 SE8       29.68F
DUNKIRK        CLOUDY    68  57  68 S13       29.66F
JAMESTOWN      CLEAR     61  52  72 S6        29.73S
WELLSVILLE     CLEAR     61  54  77 SE8       29.78F
ROCHESTER      CLEAR     58  54  86 S3        29.70F
PENN YAN       CLEAR     59  52  77 S3        29.75F
$$

             KEY
       WCI = WIND CHILL INDEX
       VSB = VISIBILITY
       HX  = HEAT INDEX
$$



USA.gov is the U.S. government's official web portal to all federal, state and local government web resources and services.